Location: Felsheim
(48.7267°N, 10.7386°E)
Time: 23:07:34
(UTC+00:00)

STARLINK-1203 - Pass Details

Date: 09 April 2020
Orbit: 559 x 560 km, 53.0° (Epoch: 24 May)

Event Time Altitude Azimuth Distance (km) Brightness Sun altitude
Rises 19:11:34 0° 294° (WNW) 2,750 9.4 -11.8°
Reaches altitude 10° 19:13:49 10° 295° (WNW) 1,853 7.9 -12.2°
Maximum altitude 19:18:02 77° 23° (NNE) 579 3.7 -12.8°
Enters shadow 19:20:48 21° 107° (ESE) 1,291 4.9 -13.2°
